This is the latest recevied weather packets stored in our database for station/object KD2PO-13. If no packets are shown the sender has not sent any weather packets the latest 10 day(s).
| Time | Temp. | Humidity | Pressure | Rain* | Wind** | Luminosity | Snow |
|---|---|---|---|---|---|---|---|
| 1777825345 | 8.89° C | 48% | 0 hPa | 0 mm | - | - | - |
| 1777825045 | 8.89° C | 49% | 0 hPa | 0 mm | - | - | - |
| 1777824445 | 8.89° C | 53% | 0 hPa | 0 mm | - | - | - |
| 1777824145 | 8.33° C | 48% | 0 hPa | 0 mm | - | - | - |
| 1777823845 | 8.89° C | 48% | 0 hPa | 0 mm | - | - | - |
| 1777822645 | 8.33° C | 48% | 0 hPa | 0 mm | - | - | - |
| 1777822346 | 7.78° C | 49% | 0 hPa | 0 mm | - | - | - |
| 1777822045 | 7.78° C | 49% | 0 hPa | 0 mm | - | - | - |
| 1777821745 | 7.78° C | 49% | 0 hPa | 0 mm | - | - | - |
| 1777821445 | 7.78° C | 51% | 0 hPa | 0 mm | - | - | - |
| 1777821145 | 7.22° C | 49% | 0 hPa | 0 mm | - | - | - |
| 1777820846 | 7.78° C | - | - | 0 mm | - | - | - |
| 1777820846 | 7.78° C | 48% | 0 hPa | 0 mm | - | - | - |
| 1777818144 | 6.67° C | 51% | 0 hPa | 0 mm | - | - | - |
| 1777817845 | 6.67° C | 53% | 0 hPa | 0 mm | - | - | - |
| 1777817545 | 6.67° C | 52% | 0 hPa | 0 mm | - | - | - |
| 1777814544 | 5.56° C | 56% | 0 hPa | 0 mm | - | - | - |
| 1777814245 | 5.56° C | 56% | 0 hPa | 0 mm | - | - | - |
| 1777813945 | 5° C | 56% | 0 hPa | 0 mm | - | - | - |
| 1777813645 | 5° C | 57% | 0 hPa | 0 mm | - | - | - |
| 1777813044 | 5° C | 57% | 0 hPa | 0 mm | - | - | - |
| 1777812745 | 5° C | 56% | 0 hPa | 0 mm | - | - | - |
| 1777811844 | 4.44° C | 64% | 0 hPa | 0 mm | - | - | - |
| 1777811245 | 3.89° C | 66% | 0 hPa | 0 mm | - | - | - |
| 1777810644 | 3.89° C | 68% | 0 hPa | 0 mm | - | - | - |
* Rain latest hour (hover to see other rain measurements)
** Current wind speed in m/s (hover to see current wind gust speed)